Track STARLINK-2534 now! 10-day predictions STARLINK-2534 is classified as:
1 48311U 21036AM 22186.49660413 -.00000358 00000-0 -51665-5 0 9997 2 48311 53.0556 1.4464 0001483 89.7725 270.3434 15.06401077 66361